TimeEST,TemperatureF,Dew PointF,Humidity,Sea Level PressureIn,VisibilityMPH,Wind Direction,Wind SpeedMPH,Gust SpeedMPH,PrecipitationIn,Events,Conditions,WindDirDegrees,DateUTC
12:55 AM,34.3,24.4,67,29.79,10.0,West,10.4,-,N/A,,Partly Cloudy,280,2013-02-13 05:55:00
1:55 AM,32.2,23.7,71,29.78,10.0,WNW,6.9,-,N/A,,Clear,300,2013-02-13 06:55:00
2:55 AM,32.0,23.2,70,29.78,10.0,West,6.9,-,N/A,,Clear,280,2013-02-13 07:55:00
3:55 AM,31.3,22.1,69,29.80,10.0,West,5.8,-,N/A,,Clear,280,2013-02-13 08:55:00
4:55 AM,30.6,22.1,71,29.83,10.0,WSW,4.6,-,N/A,,Clear,250,2013-02-13 09:55:00
5:55 AM,29.1,21.6,73,29.83,10.0,SW,3.5,-,N/A,,Clear,220,2013-02-13 10:55:00
6:55 AM,27.5,21.4,78,29.83,10.0,SW,3.5,-,N/A,,Clear,230,2013-02-13 11:55:00
7:55 AM,29.7,21.0,70,29.85,10.0,WSW,5.8,-,N/A,,Partly Cloudy,240,2013-02-13 12:55:00
8:55 AM,33.8,21.2,60,29.84,10.0,WSW,4.6,-,N/A,,Partly Cloudy,250,2013-02-13 13:55:00
9:55 AM,36.3,20.3,52,29.83,10.0,WSW,10.4,-,N/A,,Partly Cloudy,250,2013-02-13 14:55:00
10:55 AM,36.9,21.6,54,29.82,10.0,NW,8.1,-,N/A,,Partly Cloudy,320,2013-02-13 15:55:00
11:55 AM,39.6,20.3,46,29.79,10.0,WNW,9.2,-,N/A,,Partly Cloudy,300,2013-02-13 16:55:00
12:55 PM,40.1,19.8,44,29.79,10.0,WNW,8.1,-,N/A,,Scattered Clouds,300,2013-02-13 17:55:00
1:55 PM,41.0,20.1,43,29.78,10.0,SW,8.1,-,N/A,,Mostly Cloudy,230,2013-02-13 18:55:00
2:55 PM,40.5,19.4,43,29.77,10.0,West,6.9,-,N/A,,Scattered Clouds,260,2013-02-13 19:55:00
3:55 PM,40.5,18.9,42,29.75,10.0,WNW,3.5,-,N/A,,Scattered Clouds,300,2013-02-13 20:55:00
4:55 PM,37.4,20.3,50,29.76,10.0,SW,4.6,-,N/A,,Scattered Clouds,230,2013-02-13 21:55:00
5:55 PM,36.0,19.0,50,29.75,10.0,Calm,Calm,-,N/A,,Partly Cloudy,0,2013-02-13 22:55:00
6:55 PM,31.5,19.6,62,29.75,10.0,Calm,Calm,-,N/A,,Partly Cloudy,0,2013-02-13 23:55:00
7:55 PM,30.7,18.9,61,29.75,10.0,Calm,Calm,-,N/A,,Mostly Cloudy,0,2013-02-14 00:55:00
8:55 PM,28.9,18.7,66,29.75,10.0,Calm,Calm,-,N/A,,Mostly Cloudy,0,2013-02-14 01:55:00
9:55 PM,27.0,19.4,73,29.74,10.0,NW,4.6,-,N/A,,Mostly Cloudy,320,2013-02-14 02:55:00
10:55 PM,28.6,21.6,75,29.73,10.0,NW,4.6,-,N/A,,Overcast,320,2013-02-14 03:55:00
11:55 PM,29.5,19.9,68,29.72,10.0,NW,5.8,-,N/A,,Overcast,320,2013-02-14 04:55:00